Temperature
7 7 7 7 7 7 7 7 7 6 6 6 6 6 7 6 7 7 7 7 7 7 7 7 7 7 7 7 7 7 7 7 7 7 7 7 6 6 6 6 6 6 6
7 6 6 6 6 6 6 6 6 6 6 6 6 6 6 6 6 6 6 6 7 7 7 7 7 7 7 7 7 7 7 7 6 6 6 6 6 6 6 6 6 6 6
6 6 6 6 6 6 6 6 6 6 5 5 5 6 6 6 6 6 6 6 6 6 6 6 6 6 6 6 6 6 6 6 6 6 5 5 5 5 5 5 5 5 5
5 5 5 5 5 5 5 5 5 5 5 5 5 5 5 5 5 5 5 5 5 5 5 5 5 5 6 5 5 5 5 5 5 5 5 4 4 4 4 4 4 4 4
5 5 5 5 5 5 5 5 5 5 4 4 4 4 4 4 4 4 4 4 4 4 4 4 5 5 5 5 5 5 5 5 4 4 4 4 4 4 4 3 3 3 3
4 4 4 4 4 4 4 4 4 4 4 4 4 4 4 4 4 4 4 4 4 4 4 4 4 4 4 4 4 4 4 4 4 4 3 3 3 3 3 3 3 2 2
3 3 3 3 4 4 4 3 3 3 3 3 3 3 3 3 3 3 3 3 3 3 3 3 3 3 3 3 3 3 3 3 3 3 3 3 3 2 2 2 2 2 2
3 3 3 3 3 3 3 3 3 3 3 3 3 3 3 3 3 2 2 2 2 2 2 2 3 3 3 2 2 2 2 2 2 2 2 2 2 2 1 1 1 1 1
2 2 2 2 3 3 3 3 2 2 2 2 2 2 2 2 2 2 2 2 2 2 2 2 2 2 2 2 1 2 2 2 1 1 1 1 1 1 1 1 0 0 0
2 2 2 2 2 2 2 2 2 2 2 2 2 1 1 1 1 1 1 1 1 1 1 1 1 1 1 1 1 1 1 1 1 1 1 1 1 0 0 0 -0 -0 -1
1 1 1 1 1 1 1 1 1 1 1 1 1 1 1 1 1 1 1 1 1 1 0 0 0 0 0 0 0 0 0 0 0 -0 -0 -0 -0 -0 -0 -0 -1 -1 -1
0 0 1 1 1 1 1 1 1 0 0 0 0 0 0 0 0 0 0 -0 -0 -0 -0 -0 -0 -0 -0 -0 -0 -0 -1 -1 -1 -1 -1 -1 -1 -1 -1 -1 -1 -1 -1
-1 -0 -0 -0 -0 -0 -0 -0 -0 -0 -0 -0 -0 -0 -0 -0 -0 -0 -1 -1 -1 -1 -1 -1 -1 -1 -1 -1 -1 -1 -1 -1 -1 -1 -1 -1 -1 -1 -1 -1 -2 -2 -2
-1 -1 -1 -1 -1 -1 -1 -1 -1 -1 -1 -1 -1 -1 -1 -1 -1 -1 -1 -1 -1 -1 -1 -1 -1 -1 -1 -1 -1 -1 -1 -2 -2 -2 -2 -2 -2 -2 -2 -2 -2 -2 -2
-2 -2 -1 -1 -1 -1 -1 -1 -1 -1 -1 -1 -1 -1 -1 -1 -1 -1 -2 -2 -2 -2 -2 -2 -2 -2 -2 -2 -2 -2 -2 -2 -2 -2 -2 -2 -2 -2 -2 -3 -3 -3 -3
-2 -2 -2 -2 -2 -2 -2 -2 -2 -2 -2 -2 -1 -1 -1 -1 -2 -2 -2 -2 -2 -2 -2 -2 -2 -2 -2 -2 -2 -2 -3 -3 -3 -3 -3 -3 -3 -3 -3 -3 -3 -4 -4
-3 -3 -3 -3 -3 -3 -2 -2 -2 -2 -2 -2 -2 -2 -2 -2 -2 -2 -2 -3 -3 -3 -3 -3 -3 -3 -3 -3 -3 -3 -3 -3 -3 -3 -3 -4 -4 -4 -4 -4 -4 -4 -4
-3 -3 -3 -3 -3 -3 -3 -3 -3 -3 -3 -3 -3 -3 -3 -3 -3 -3 -3 -3 -3 -3 -3 -3 -3 -3 -3 -3 -4 -4 -4 -4 -4 -4 -4 -4 -4 -4 -4 -4 -4 -5 -5
-4 -4 -4 -4 -4 -3 -3 -3 -3 -3 -3 -4 -4 -3 -3 -3 -3 -3 -3 -3 -3 -3 -3 -3 -3 -4 -4 -4 -4 -4 -4 -4 -4 -4 -4 -4 -5 -5 -5 -5 -5 -5 -5
-5 -4 -4 -4 -4 -4 -4 -4 -4 -4 -4 -4 -4 -4 -4 -4 -4 -4 -4 -4 -4 -4 -4 -4 -4 -4 -4 -4 -5 -5 -5 -5 -5 -5 -5 -5 -5 -5 -5 -5 -5 -6 -6
-5 -5 -5 -5 -4 -4 -4 -4 -4 -4 -4 -4 -5 -5 -5 -4 -4 -4 -5 -5 -5 -5 -5 -5 -5 -5 -5 -5 -5 -5 -5 -5 -5 -5 -5 -5 -5 -5 -5 -6 -6 -6 -6
-5 -5 -5 -5 -5 -5 -5 -5 -5 -5 -5 -5 -5 -5 -5 -5 -5 -5 -5 -5 -5 -5 -5 -5 -5 -5 -5 -5 -5 -5 -5 -5 -5 -5 -6 -5 -6 -6 -6 -6 -6 -6 -6
-6 -6 -5 -5 -5 -5 -5 -5 -5 -5 -5 -5 -5 -5 -5 -5 -5 -5 -5 -5 -5 -5 -5 -5 -5 -5 -5 -6 -6 -6 -6 -6 -6 -6 -6 -6 -6 -6 -6 -6 -6 -6 -6
-6 -6 -6 -6 -6 -6 -6 -6 -6 -6 -6 -6 -6 -6 -6 -6 -6 -5 -5 -6 -6 -6 -6 -6 -6 -6 -6 -6 -6 -6 -6 -6 -6 -6 -6 -6 -6 -6 -6 -6 -6 -7 -7
-7 -7 -7 -7 -7 -7 -7 -7 -7 -7 -6 -6 -6 -6 -6 -6 -6 -6 -6 -6 -6 -6 -6 -6 -6 -6 -6 -6 -6 -6 -6 -6 -6 -6 -6 -7 -6 -7 -7 -7 -7 -7 -7
-8 -8 -8 -8 -8 -7 -7 -7 -7 -7 -7 -7 -7 -7 -7 -6 -6 -6 -6 -6 -6 -6 -6 -6 -6 -6 -6 -6 -6 -6 -7 -7 -7 -7 -7 -7 -7 -7 -7 -7 -7 -7 -7
Wind_Speed
6 6 7 6 6 6 5 6 6 5 5 6 6 5 5 4 3 3 3 3 3 2 2 2 2 2 1 1 1 2 1 2 2 1 0 0 1 0 2 2 3 3 4
5 6 7 6 6 6 6 5 6 6 5 6 6 6 6 5 4 4 4 3 4 3 2 2 2 2 2 1 1 1 1 1 2 2 1 0 0 1 1 2 3 4 5
4 6 6 6 7 7 6 6 6 6 5 5 6 6 6 5 5 4 5 4 4 3 3 3 2 3 2 1 1 1 1 1 1 2 1 0 0 0 1 2 2 3 5
4 5 6 6 7 7 6 6 6 6 6 5 5 5 5 5 5 4 4 4 4 3 3 2 2 3 3 2 2 2 2 2 1 2 1 1 1 1 0 1 2 2 3
4 5 5 5 5 6 6 6 6 6 6 6 5 5 4 4 5 5 5 5 4 3 2 2 1 2 3 2 2 2 2 2 2 1 1 1 1 1 2 2 3 3 3
4 5 5 5 5 6 6 6 6 6 6 6 5 5 4 3 6 6 5 4 4 4 3 1 1 1 2 2 2 2 3 3 3 2 2 3 3 3 2 2 2 2 3
4 4 5 5 6 5 6 6 6 6 6 5 5 5 4 5 6 6 6 4 4 3 3 2 1 1 1 1 1 1 0 1 3 3 3 4 3 3 3 3 3 3 4
4 4 5 5 6 5 5 5 5 5 6 5 5 4 4 4 5 6 6 4 3 2 2 3 3 2 2 2 2 1 0 1 1 2 3 3 3 3 3 3 3 3 3
3 4 5 6 6 5 5 5 5 5 5 5 5 5 4 4 5 6 5 4 3 2 2 2 3 3 3 2 2 2 1 1 2 2 3 3 3 3 2 0 1 2 4
3 3 4 5 6 6 5 5 4 4 4 4 4 4 4 4 5 6 5 4 3 2 2 2 3 3 4 3 3 3 3 2 1 1 2 2 2 2 2 2 3 2 3
3 3 4 4 5 5 4 4 4 4 4 4 4 2 3 4 5 6 6 4 4 3 2 2 2 3 4 4 3 3 4 2 1 1 1 1 1 1 2 2 3 3 4
3 4 4 4 4 4 5 4 4 5 5 4 3 2 1 3 4 6 7 5 5 4 3 3 3 4 3 3 3 3 3 2 1 1 1 2 2 2 2 3 4 4 5
4 3 3 4 3 3 4 4 4 4 4 4 4 3 2 2 3 5 6 6 5 3 3 4 4 3 3 2 3 3 2 2 2 2 2 3 2 2 2 2 3 3 4
3 3 3 3 3 2 2 3 3 4 5 4 4 4 3 3 3 3 3 3 4 3 2 3 3 2 2 2 2 2 2 2 2 3 3 2 2 1 2 2 2 2 3
3 2 3 3 3 2 2 1 2 3 5 6 5 5 5 4 5 6 4 3 3 4 3 2 1 2 2 2 2 2 2 2 2 2 2 2 2 2 2 2 2 2 3
2 2 2 2 2 2 2 1 1 1 2 4 5 5 4 5 6 6 6 6 5 5 3 2 3 3 3 3 3 2 2 2 2 2 2 3 3 3 3 2 2 3 4
2 2 2 2 2 2 2 2 1 1 2 2 2 2 3 4 5 5 5 5 5 4 2 3 3 4 3 3 3 3 3 3 2 3 3 3 3 3 3 3 3 3 4
2 1 2 2 1 1 1 1 1 1 1 1 0 1 1 2 3 4 4 3 2 2 3 3 4 3 3 3 3 3 3 3 3 3 3 3 3 3 4 4 4 4 5
2 1 1 1 1 1 1 1 1 1 1 0 1 1 0 1 1 1 2 2 3 3 3 3 3 3 3 3 4 4 4 4 4 4 4 4 4 4 4 5 5 6 6
2 2 1 0 0 0 1 1 1 1 1 1 1 1 0 0 1 1 1 2 2 3 3 3 3 4 4 4 4 4 4 4 4 4 4 4 5 5 6 6 6 5 6
1 1 1 1 0 0 1 1 1 1 1 1 1 1 1 1 2 2 2 2 3 3 3 3 3 4 4 4 4 5 5 5 5 5 5 5 5 5 5 5 6 6 6
1 1 1 0 0 0 1 1 1 1 1 1 1 1 1 1 1 2 2 3 3 3 3 4 4 4 4 5 5 5 5 5 5 5 5 5 5 5 5 5 5 5 6
2 2 2 1 1 0 0 0 0 1 1 1 1 1 1 2 2 2 3 2 2 3 3 4 4 5 5 7 7 6 6 6 6 6 6 6 6 6 5 6 6 6 6
2 1 1 1 1 0 0 1 1 1 1 1 1 1 2 2 2 2 2 2 3 3 4 4 5 6 7 7 7 8 9 10 9 8 8 7 7 6 6 6 6 7 7
2 1 1 1 1 1 1 1 1 2 2 2 2 2 2 2 2 3 3 3 3 4 4 5 5 6 7 8 9 9 10 11 11 9 8 7 7 7 7 7 6 6 6
2 2 1 1 1 1 2 2 2 2 2 3 2 2 2 3 3 3 3 3 3 4 5 5 6 7 8 9 10 10 11 11 11 11 9 7 6 6 6 6 6 6 6
Wind_Direction
178 176 170 172 167 161 165 169 167 162 161 162 158 149 143 144 142 136 131 127 124 108 99 118 110 98 109 107 105 114 135 144 185 234 261 220 177 248 340 335 327 319 311
174 170 170 168 162 162 168 167 160 159 159 160 158 154 151 148 147 148 146 141 144 141 134 124 121 111 103 104 115 132 160 163 174 208 249 291 248 260 323 337 338 326 319
157 158 161 165 167 170 169 162 158 154 150 147 150 156 157 155 154 154 152 152 153 155 154 149 146 132 127 127 128 138 161 166 166 182 213 228 272 298 353 331 327 325 320
153 155 165 174 175 174 167 159 157 154 149 146 147 150 152 151 151 149 142 139 136 138 137 142 151 159 166 166 165 161 152 145 147 168 203 223 258 278 223 301 313 309 310
153 158 171 169 162 158 155 155 152 149 147 143 138 138 141 144 150 148 146 141 139 134 126 132 145 159 165 168 169 175 166 167 164 182 214 226 242 246 259 259 280 301 299
156 165 166 156 152 153 153 151 146 142 140 136 140 143 144 154 148 148 149 143 143 144 143 136 127 147 130 113 126 159 182 189 198 207 229 232 244 238 239 252 271 303 297
160 163 157 152 152 157 153 147 148 147 140 139 146 148 153 160 156 153 154 151 150 156 160 165 159 153 117 140 120 91 49 239 219 213 220 235 234 231 222 248 253 258 271
161 162 159 154 153 151 150 153 153 148 149 150 150 151 148 158 158 158 154 150 149 161 174 183 184 190 191 163 145 129 190 274 255 220 214 231 233 230 222 233 244 264 278
156 164 164 158 154 153 156 160 155 148 147 149 151 153 154 166 167 165 157 150 154 169 185 192 190 199 202 184 164 175 210 289 335 289 269 269 273 273 269 234 251 286 291
166 161 156 154 155 159 163 159 151 145 146 145 143 151 161 177 181 178 173 165 167 176 183 197 203 210 213 205 191 191 218 252 262 314 327 311 298 271 251 227 215 245 280
140 131 132 141 150 154 152 149 144 141 137 142 144 150 171 191 191 190 189 180 178 181 195 211 215 209 219 221 221 208 232 239 212 221 276 301 313 301 288 271 246 230 250
112 113 119 125 136 142 142 145 146 146 146 153 152 160 190 205 199 192 190 192 189 187 202 214 222 225 227 227 234 239 246 242 186 213 254 272 283 284 281 290 279 265 255
103 110 118 120 128 142 149 155 159 161 164 174 175 182 199 202 192 189 191 192 197 206 206 212 223 228 226 226 233 238 234 214 209 234 250 259 259 262 284 293 302 294 287
109 112 120 123 125 130 143 160 170 177 177 182 187 191 197 200 196 189 191 196 198 206 210 206 215 215 216 225 233 237 224 216 226 233 245 252 259 267 277 284 287 300 299
103 108 119 123 132 128 130 160 179 204 197 192 196 192 191 207 215 204 192 189 191 194 181 189 212 214 209 218 225 221 217 217 235 235 240 257 273 283 290 290 273 288 282
116 117 120 123 124 126 119 67 23 168 192 198 204 203 212 215 211 208 206 205 205 199 198 205 221 225 225 224 228 232 232 229 232 240 239 244 255 265 276 279 268 265 276
127 135 131 129 131 138 141 138 127 44 71 109 144 186 210 210 208 203 199 198 202 199 212 214 224 228 232 227 229 237 247 244 233 230 237 243 249 254 260 266 269 272 273
86 99 119 134 143 152 157 164 167 159 111 9 37 117 144 184 198 195 186 179 205 216 213 216 223 227 231 232 233 238 242 240 237 237 236 242 245 250 256 262 263 266 273
69 83 101 122 139 150 150 147 151 157 172 258 6 347 18 137 152 175 172 187 207 225 228 225 227 228 232 232 234 236 234 235 237 236 237 239 242 245 253 256 260 269 273
45 48 49 84 97 109 133 140 159 174 178 188 218 274 315 126 186 221 227 213 216 230 230 234 235 231 230 232 235 235 236 236 237 239 241 242 242 243 248 252 256 260 264
29 28 22 38 89 171 176 186 188 187 194 208 230 241 214 199 213 231 241 238 235 237 234 234 233 233 234 235 235 233 235 239 237 237 239 241 242 246 249 250 253 256 264
21 14 13 33 52 206 192 183 184 197 205 217 238 246 231 221 225 237 247 255 252 249 239 233 234 232 230 229 231 236 238 241 241 240 240 241 243 247 250 250 252 256 262
10 10 6 4 19 29 45 98 186 220 238 238 234 232 234 240 245 251 257 264 267 266 258 248 244 245 246 244 240 235 236 240 238 236 240 243 244 245 247 249 249 256 260
359 351 354 8 13 13 298 279 268 262 257 254 253 247 242 247 254 264 268 272 272 271 268 262 255 252 254 255 253 250 250 253 251 245 240 240 245 248 249 250 251 253 257
344 341 340 326 309 306 295 283 281 278 276 273 266 264 267 269 270 273 272 270 269 270 272 274 269 263 261 261 260 261 261 260 259 254 245 242 243 245 248 249 250 252 255
339 334 325 308 287 280 282 277 272 272 271 272 268 266 267 270 273 273 275 273 272 273 275 277 274 273 272 271 269 268 267 266 264 262 254 247 240 243 244 247 247 249 252
Height
1448 1451 1454 1457 1460 1463 1465 1468 1470 1472 1475 1477 1479 1482 1485 1488 1491 1493 1496 1498 1500 1502 1504 1506 1508 1510 1512 1514 1515 1516 1518 1520 1520 1521 1522 1523 1524 1525 1526 1526 1526 1526 1525
1445 1448 1451 1454 1457 1459 1462 1465 1467 1469 1471 1474 1476 1479 1481 1485 1488 1490 1493 1495 1497 1499 1501 1503 1505 1507 1509 1510 1512 1513 1515 1516 1517 1516 1518 1519 1520 1521 1521 1521 1521 1522 1521
1443 1445 1448 1451 1453 1456 1459 1462 1465 1467 1469 1471 1473 1475 1478 1481 1484 1487 1489 1492 1494 1496 1498 1500 1502 1504 1505 1507 1508 1510 1511 1513 1513 1513 1514 1515 1516 1516 1516 1516 1516 1516 1516
1440 1442 1445 1448 1450 1453 1456 1459 1462 1464 1466 1468 1470 1473 1475 1478 1481 1483 1486 1488 1491 1493 1495 1497 1499 1501 1502 1504 1505 1506 1507 1509 1509 1510 1510 1511 1511 1512 1512 1511 1511 1511 1510
1438 1440 1442 1445 1448 1451 1453 1456 1459 1461 1463 1466 1468 1471 1473 1475 1477 1480 1483 1485 1488 1490 1492 1494 1496 1498 1499 1500 1501 1503 1504 1505 1505 1506 1506 1506 1507 1507 1507 1507 1506 1505 1505
1436 1438 1440 1443 1445 1448 1451 1453 1456 1458 1461 1464 1466 1468 1471 1472 1475 1478 1480 1483 1485 1486 1488 1491 1493 1495 1496 1497 1498 1499 1501 1501 1502 1502 1502 1502 1502 1503 1503 1502 1501 1500 1499
1434 1436 1438 1441 1443 1446 1449 1451 1454 1456 1459 1461 1464 1466 1468 1470 1473 1475 1478 1480 1482 1484 1486 1488 1489 1491 1492 1494 1494 1495 1497 1498 1498 1499 1498 1498 1498 1498 1498 1498 1497 1496 1494
1432 1434 1436 1439 1441 1444 1447 1449 1451 1454 1456 1459 1461 1464 1466 1468 1470 1472 1474 1477 1479 1481 1483 1485 1486 1487 1489 1490 1491 1491 1492 1493 1494 1494 1494 1494 1494 1494 1493 1493 1492 1491 1490
1429 1431 1434 1437 1439 1441 1444 1446 1449 1452 1454 1456 1459 1461 1463 1465 1468 1470 1472 1473 1475 1477 1479 1481 1483 1484 1485 1486 1487 1487 1488 1489 1490 1490 1490 1490 1490 1489 1489 1488 1487 1486 1484
1427 1429 1432 1434 1437 1439 1441 1444 1447 1449 1451 1454 1456 1458 1460 1462 1465 1467 1469 1470 1472 1473 1476 1477 1479 1480 1482 1483 1484 1484 1484 1484 1485 1485 1486 1486 1485 1485 1485 1484 1483 1482 1480
1425 1427 1430 1432 1435 1437 1439 1441 1444 1446 1448 1451 1453 1455 1458 1460 1462 1464 1465 1467 1468 1470 1472 1473 1475 1477 1478 1479 1480 1480 1480 1481 1481 1481 1481 1481 1480 1480 1479 1479 1479 1478 1476
1424 1425 1427 1430 1432 1435 1436 1438 1440 1443 1445 1447 1450 1452 1454 1457 1459 1460 1462 1464 1466 1467 1468 1470 1471 1473 1474 1475 1476 1476 1476 1477 1476 1476 1476 1476 1475 1475 1475 1474 1473 1473 1472
1422 1423 1425 1428 1430 1432 1434 1436 1438 1440 1442 1444 1446 1448 1450 1453 1455 1457 1458 1460 1462 1463 1465 1466 1468 1469 1470 1471 1471 1472 1472 1472 1472 1471 1471 1471 1471 1470 1470 1469 1468 1468 1467
1420 1422 1424 1426 1428 1430 1432 1434 1435 1437 1438 1440 1443 1445 1447 1449 1450 1452 1454 1456 1457 1459 1461 1462 1463 1465 1466 1466 1467 1467 1467 1467 1467 1467 1466 1466 1466 1466 1465 1464 1463 1462 1461
1419 1420 1422 1424 1426 1427 1429 1431 1432 1434 1435 1437 1439 1441 1443 1444 1446 1448 1450 1451 1453 1455 1457 1458 1459 1460 1460 1461 1461 1462 1462 1463 1462 1462 1462 1461 1461 1460 1460 1459 1458 1457 1456
1418 1419 1421 1422 1424 1425 1426 1428 1429 1431 1432 1434 1436 1438 1439 1441 1443 1445 1446 1448 1450 1451 1453 1453 1454 1455 1455 1456 1456 1457 1457 1457 1457 1457 1457 1456 1456 1455 1455 1454 1454 1452 1451
1417 1418 1420 1421 1422 1423 1424 1425 1426 1428 1429 1431 1433 1434 1436 1438 1439 1441 1443 1444 1446 1447 1448 1448 1449 1450 1451 1451 1451 1452 1452 1452 1452 1452 1452 1451 1451 1450 1450 1449 1448 1447 1446
1416 1417 1418 1419 1420 1421 1422 1423 1424 1424 1426 1427 1429 1431 1432 1434 1435 1437 1439 1440 1441 1442 1443 1444 1444 1445 1446 1446 1446 1447 1447 1447 1447 1447 1447 1446 1446 1445 1444 1443 1443 1442 1441
1415 1416 1417 1418 1418 1419 1420 1421 1422 1422 1423 1424 1425 1427 1428 1430 1431 1433 1434 1435 1436 1437 1438 1439 1440 1440 1441 1441 1441 1442 1442 1442 1442 1441 1441 1441 1440 1440 1439 1438 1438 1437 1436
1414 1415 1415 1416 1417 1418 1419 1419 1420 1420 1421 1421 1423 1424 1425 1426 1427 1429 1430 1431 1432 1433 1434 1434 1435 1435 1436 1436 1436 1436 1436 1436 1436 1436 1435 1435 1435 1434 1434 1433 1433 1432 1431
1413 1413 1414 1414 1415 1416 1416 1417 1418 1418 1419 1419 1420 1422 1423 1423 1424 1425 1426 1427 1428 1428 1429 1430 1430 1430 1431 1431 1431 1431 1431 1431 1430 1430 1430 1430 1429 1429 1428 1428 1427 1427 1426
1412 1412 1412 1412 1413 1413 1414 1415 1415 1416 1416 1417 1418 1419 1420 1421 1421 1422 1423 1423 1424 1425 1425 1425 1425 1426 1426 1426 1426 1426 1425 1425 1425 1425 1424 1424 1424 1423 1423 1422 1422 1421 1420
1410 1410 1410 1410 1411 1411 1412 1412 1413 1413 1414 1415 1415 1416 1417 1418 1418 1419 1419 1420 1420 1421 1421 1421 1421 1420 1421 1421 1420 1420 1420 1419 1419 1419 1418 1418 1417 1417 1417 1416 1416 1415 1415
1409 1409 1408 1408 1409 1409 1409 1410 1411 1411 1411 1412 1412 1413 1414 1414 1415 1415 1416 1416 1416 1416 1416 1416 1415 1415 1415 1415 1414 1414 1414 1413 1413 1412 1412 1412 1411 1411 1411 1410 1410 1410 1410
1408 1407 1407 1407 1407 1407 1407 1408 1408 1408 1409 1409 1409 1410 1410 1410 1411 1411 1411 1412 1411 1411 1411 1411 1410 1409 1409 1408 1408 1408 1407 1407 1407 1406 1406 1406 1405 1405 1405 1405 1404 1404 1404
1407 1406 1405 1405 1405 1405 1405 1405 1405 1406 1406 1406 1406 1406 1407 1407 1407 1407 1407 1407 1407 1406 1406 1405 1405 1404 1403 1402 1402 1401 1401 1400 1400 1400 1400 1400 1399 1399 1399 1399 1399 1399 1398